User: anonymous   Login
Location: Hancock Field Station
(44.9202°N, 120.4259°W)
Time: 20:06:38
(UTC-08:00)
Language:

Nadezhda 4 Rocket - Orbit

View from above orbital plane
View from above orbital plane
View from above satellite
View from above satellite

Ground track
Ground track

The orbit data is extracted from the following two-line orbital elements,

1 23180U 94041B   14352.86501948  .00000138  00000-0  12221-3 0  5863
2 23180 082.9464 249.1403 0027666 258.9696 170.6463 13.77856476 27408
Epoch (UTC): 18 December 2014 20:45:37
Eccentricity: 0.0027666
inclination: 82.9464°
perigee height: 951 km
apogee height: 992 km
right ascension of ascending node: 249.1403°
argument of perigee: 258.9696°
revolutions per day: 13.77856476
mean anomaly at epoch: 170.6463°
orbit number at epoch: 2740

The dashed part of the orbit path shows where the satellite is in the earth's shadow,  

DLR